CAPE
2 3 2 2 3 4 280 1148 1688 1551 1411 1604 1684 1399 1213 1197 1146 1075 987 948 829 894 848 858 964 1161 893 645 423 450 450 395 259 319 284 161 97 64 2 2 7 1 0
1 2 3 2 3 3 403 1137 1498 1360 1373 1530 1432 1377 1285 1110 1050 919 855 773 858 796 803 704 759 801 691 534 359 270 245 251 198 100 146 68 48 58 37 2 1 6 2
1 1 2 4 7 11 10 8 22 800 817 598 786 493 714 768 802 814 776 700 663 588 559 457 573 433 304 241 282 179 248 169 140 72 56 47 30 35 5 2 3 3 5
1 1 2 4 6 8 8 10 9 9 14 15 12 12 10 6 3 11 365 291 300 322 339 232 217 110 60 3 7 37 72 88 42 47 20 6 9 13 16 1 2 2 2
0 2 2 2 3 4 5 5 5 7 7 7 10 9 7 8 7 3 2 2 4 3 0 0 0 1 0 0 0 1 0 0 1 19 11 5 9 4 3 0 1 1 0
1 1 1 1 2 3 4 3 4 4 4 5 8 10 11 10 5 0 2 3 2 1 1 2 0 0 0 0 0 2 0 2 0 2 3 15 0 5 0 1 1 0 0
0 0 0 0 1 2 1 3 5 4 3 4 3 4 8 5 3 6 4 6 10 13 13 10 5 6 6 3 2 0 2 3 5 4 1 2 2 1 1 1 1 0 0
1 1 1 1 1 0 0 1 1 0 1 3 3 2 5 4 5 2 3 2 1 3 7 5 10 10 6 3 5 5 5 5 6 7 7 8 8 6 2 1 0 0 0
2 2 1 1 1 0 0 0 0 0 1 1 1 2 1 5 5 5 1 3 3 4 3 4 4 5 6 1 4 6 4 3 2 2 3 4 8 7 3 1 0 0 0
2 1 2 1 1 2 1 1 0 0 0 0 0 0 1 1 3 4 1 1 1 2 2 2 2 3 5 5 4 4 3 7 4 1 0 0 2 5 8 7 2 1 0
0 0 0 1 1 1 1 1 1 1 1 1 1 0 1 1 1 2 2 0 1 2 2 1 1 2 3 4 5 6 5 4 4 2 2 2 1 5 7 7 4 3 0
0 0 0 0 0 0 0 0 0 0 0 0 0 0 0 1 2 2 4 2 1 2 2 1 1 1 2 2 3 3 2 0 0 1 0 2 3 2 2 2 4 4 3
0 0 0 0 0 0 0 0 0 0 0 0 0 0 0 0 0 0 2 1 0 1 0 0 1 0 0 1 1 0 1 1 2 0 1 2 2 2 0 0 0 1 2
0 0 0 0 0 0 0 0 0 0 0 0 1 0 0 0 1 1 0 1 0 0 0 1 0 1 1 2 0 0 2 1 0 1 1 0 1 1 1 0 1 1 1
0 0 0 0 0 0 0 0 0 0 0 0 0 0 0 0 0 1 1 0 1 0 0 0 0 0 0 0 0 0 0 0 0 1 1 1 1 1 1 0 0 0 2
0 0 0 0 0 0 0 0 0 0 0 0 0 0 0 1 0 0 0 0 0 0 0 1 0 1 0 0 0 0 0 0 0 0 0 1 1 1 1 1 0 1 1
0 0 0 0 0 0 0 0 0 0 0 0 0 0 0 0 0 0 0 0 0 0 0 0 0 0 0 0 0 0 0 0 0 0 1 0 3 1 0 1 0 0 0
0 0 0 0 0 0 0 0 0 0 0 0 0 0 0 0 0 0 0 0 0 0 0 0 0 0 0 0 0 0 0 0 1 0 0 0 1 1 1 1 0 0 1
0 0 0 0 0 0 0 0 0 0 0 0 0 0 0 0 0 0 0 0 0 0 0 0 0 0 0 0 2 0 3 1 1 1 0 0 0 0 0 1 0 0 0
0 0 0 0 0 0 0 0 0 0 0 0 0 0 0 0 0 0 0 0 0 0 0 0 0 1 2 1 0 1 0 1 0 0 0 2 3 1 0 0 0 0 0
0 0 0 0 0 0 0 0 0 0 0 0 0 0 0 0 0 0 0 0 0 0 0 1 1 1 0 0 0 1 0 0 0 1 0 1 0 1 0 0 0 0 0
0 0 0 0 0 0 0 0 0 0 0 0 0 0 0 1 0 0 0 2 4 2 2 0 2 0 0 1 1 1 0 0 0 0 1 0 0 0 0 0 0 0 0
0 0 0 0 0 0 0 0 0 0 0 0 1 1 2 6 3 2 4 3 1 3 4 3 0 0 0 2 2 0 0 0 0 0 0 1 0 0 0 0 0 0 0
2 1 0 0 2 0 3 1 3 1 1 3 4 8 6 3 3 7 9 3 2 3 8 1 3 0 0 0 1 0 0 0 0 0 0 0 0 0 0 0 0 0 0
4 3 1 1 2 4 9 8 5 5 6 8 7 4 4 5 3 6 11 6 2 2 7 1 4 1 1 0 0 0 0 0 0 0 0 0 0 0 0 0 0 0 0
3 2 1 3 3 4 5 5 5 5 6 8 10 13 10 8 8 11 7 6 4 2 1 6 2 0 0 0 0 0 0 0 0 0 0 1 0 0 0 0 0 0 0
CIN
-0 -0 -0 -0 -0 -0 -164 -31 -3 -3 -5 -3 -0 -16 -23 -21 -44 -85 -106 -104 -90 -69 -69 -37 -42 -1 -2 -14 -16 -6 -0 -0 -3 -53 -8 -24 -20 -52 -0 -0 -0 -0 -0
-0 -0 -0 -0 -0 -9 -201 -7 -4 -12 -6 -4 -5 -1 -0 -8 -27 -73 -72 -79 -53 -63 -50 -44 -12 -21 -0 -0 -2 -10 -9 -7 -6 -39 -57 -55 -76 -25 -41 -0 -0 -0 -0
-0 -0 -0 -0 -0 -0 -0 -0 -50 -81 -58 -118 -114 -144 -83 -42 -40 -39 -42 -35 -57 -49 -52 -47 -14 -2 -0 -4 -0 -2 -0 -5 -19 -21 -80 -73 -95 -88 -0 -0 -0 -0 -0
-0 -0 -0 -0 -0 -0 -0 -0 -0 -0 -0 -0 -0 -0 -0 -0 -0 -95 -87 -84 -62 -42 -29 -32 -25 -23 -2 -11 -4 -9 -30 -17 -37 -35 -37 -74 -56 -134 -2 -0 -0 -0 -0
-0 -0 -0 -0 -0 -0 -0 -0 -0 -0 -0 -0 -0 -0 -0 -0 -0 -0 -0 -65 -58 -59 -0 -0 -0 -0 -0 -0 -0 -0 -0 -0 -0 -2 -0 -1 -0 -1 -1 -0 -0 -0 -0
-0 -0 -0 -0 -0 -0 -0 -0 -0 -0 -0 -0 -0 -0 -0 -0 -0 -0 -0 -0 -0 -0 -0 -0 -0 -0 -0 -0 -0 -0 -0 -0 -0 -0 -0 -0 -0 -0 -0 -0 -0 -0 -0
-0 -0 -0 -0 -0 -0 -0 -0 -0 -0 -0 -0 -0 -0 -0 -0 -0 -0 -0 -0 -0 -0 -0 -0 -0 -0 -0 -0 -0 -0 -0 -0 -0 -0 -0 -0 -0 -0 -0 -0 -0 -0 -0
-0 -0 -0 -0 -0 -0 -0 -0 -0 -0 -0 -0 -0 -0 -0 -0 -0 -0 -0 -0 -0 -0 -0 -0 -0 -0 -0 -0 -0 -0 -0 -0 -0 -0 -0 -0 -0 -0 -0 -0 -0 -0 -0
-0 -0 -0 -0 -0 -0 -0 -0 -0 -0 -0 -0 -0 -0 -0 -0 -0 -0 -0 -0 -0 -0 -0 -0 -0 -0 -0 -0 -0 -0 -0 -0 -0 -0 -0 -0 -0 -0 -0 -0 -0 -0 -0
-0 -0 -0 -0 -0 -0 -0 -0 -0 -0 -0 -0 -0 -0 -0 -0 -0 -0 -0 -0 -0 -0 -0 -0 -0 -0 -0 -0 -0 -0 -0 -0 -0 -0 -0 -0 -0 -0 -0 -0 -0 -0 -0
-0 -0 -0 -0 -0 -0 -0 -0 -0 -0 -0 -0 -0 -0 -0 -0 -0 -0 -0 -0 -0 -0 -0 -0 -0 -0 -0 -0 -0 -0 -0 -0 -0 -0 -0 -0 -0 -0 -0 -0 -0 -0 -0
-0 -0 -0 -0 -0 -0 -0 -0 -0 -0 -0 -0 -0 -0 -0 -0 -0 -0 -0 -0 -0 -0 -0 -0 -0 -0 -0 -0 -0 -0 -0 -0 -0 -0 -0 -0 -0 -0 -0 -0 -0 -0 -0
-0 -0 -0 -0 -0 -0 -0 -0 -0 -0 -0 -0 -0 -0 -0 -0 -0 -0 -0 -0 -0 -0 -0 -0 -0 -0 -0 -0 -0 -0 -0 -0 -0 -0 -0 -0 -0 -0 -0 -0 -0 -0 -0
-0 -0 -0 -0 -0 -0 -0 -0 -0 -0 -0 -0 -0 -0 -0 -0 -0 -0 -0 -0 -0 -0 -0 -0 -0 -0 -1 -0 -0 -0 -0 -0 -0 -0 -0 -0 -0 -0 -0 -0 -0 -0 -0
-0 -0 -0 -0 -0 -0 -0 -0 -0 -0 -0 -0 -0 -0 -0 -0 -0 -0 -0 -0 -0 -0 -0 -0 -0 -0 -0 -0 -0 -0 -0 -0 -0 -0 -1 -0 -0 -0 -0 -0 -0 -0 -0
-0 -0 -0 -0 -0 -0 -0 -0 -0 -0 -0 -0 -0 -0 -0 -0 -0 -0 -0 -0 -0 -0 -1 -1 -0 -0 -0 -1 -1 -0 -0 -0 -0 -1 -0 -1 -0 -0 -0 -0 -0 -0 -0
-0 -0 -0 -0 -0 -0 -0 -0 -0 -0 -0 -0 -0 -0 -0 -0 -0 -0 -0 -0 -0 -0 -0 -0 -1 -1 -2 -3 -2 -2 -1 -0 -1 -1 -1 -1 -1 -0 -0 -0 -0 -0 -0
-0 -0 -0 -0 -0 -0 -0 -0 -0 -0 -0 -0 -0 -0 -0 -0 -0 -0 -0 -0 -0 -0 -0 -0 -0 -0 -0 -0 -1 -2 -2 -0 -1 -0 -1 -0 -0 -1 -1 -0 -0 -0 -0
-0 -0 -1 -2 -0 -0 -0 -0 -0 -0 -0 -0 -0 -0 -0 -0 -0 -0 -0 -0 -0 -0 -0 -0 -0 -0 -0 -0 -2 -2 -2 -3 -1 -3 -2 -0 -0 -0 -1 -0 -0 -0 -0
-0 -0 -0 -0 -0 -0 -0 -0 -0 -0 -0 -0 -0 -0 -0 -0 -0 -0 -0 -0 -0 -0 -0 -0 -2 -2 -2 -2 -3 -3 -1 -2 -2 -3 -3 -1 -1 -2 -1 -0 -0 -0 -0
-0 -0 -0 -0 -0 -0 -0 -0 -0 -0 -0 -0 -0 -0 -0 -0 -0 -0 -0 -3 -2 -0 -2 -2 -2 -2 -1 -1 -1 -1 -2 -4 -1 -3 -1 -4 -2 -3 -0 -0 -0 -0 -0
-0 -0 -0 -0 -0 -0 -0 -0 -0 -0 -0 -0 -3 -2 -0 -2 -2 -2 -3 -2 -1 -2 -2 -3 -2 -2 -2 -1 -1 -1 -0 -1 -1 -0 -3 -0 -0 -3 -0 -0 -0 -0 -0
-0 -0 -0 -0 -1 -0 -0 -1 -3 -2 -1 -4 -5 -4 -4 -2 -3 -3 -2 -2 -2 -2 -1 -1 -3 -0 -1 -1 -1 -1 -0 -0 -1 -0 -0 -2 -0 -0 -1 -0 -0 -0 -0
-2 -3 -0 -0 -4 -3 -4 -4 -4 -5 -5 -4 -3 -2 -3 -3 -3 -2 -1 -1 -2 -1 -1 -1 -1 -0 -0 -0 -1 -1 -0 -0 -0 -0 -0 -0 -1 -0 -0 -0 -0 -0 -0
-2 -3 -3 -4 -3 -3 -2 -3 -3 -4 -3 -2 -3 -3 -3 -3 -3 -2 -1 -2 -1 -1 -1 -1 -1 -2 -4 -1 -0 -0 -0 -0 -0 -0 -0 -1 -0 -0 -0 -0 -0 -0 -0
-2 -2 -3 -3 -4 -3 -4 -3 -4 -4 -4 -3 -3 -2 -2 -2 -2 -1 -1 -1 -2 -1 -1 -1 -1 -0 -0 -1 -1 -0 -0 -0 -0 -0 -0 -1 -0 -3 -0 -0 -0 -0 -0
Wind_Speed
36 37 38 37 38 42 47 45 44 43 39 38 36 34 36 35 33 33 31 30 27 25 25 26 27 27 32 33 32 29 27 25 31 40 37 28 29 22 19 16 17 17 18
32 31 29 27 24 20 26 44 44 42 37 32 32 30 29 31 31 31 31 29 26 27 25 27 28 30 32 31 28 29 26 25 30 36 33 30 28 27 24 23 21 20 22
23 25 22 18 15 14 19 20 19 28 31 26 25 21 22 25 26 27 29 29 26 23 25 28 27 30 33 30 28 29 26 26 29 29 32 30 28 26 26 26 27 26 24
22 24 20 17 14 13 14 14 12 13 14 16 15 15 16 19 21 23 24 23 21 21 22 23 27 27 29 29 29 32 34 36 33 30 29 34 32 31 28 28 30 28 29
23 25 23 20 16 12 10 10 10 9 10 12 12 11 12 14 18 20 18 18 19 20 22 23 25 27 26 29 32 35 38 39 40 36 28 29 30 31 27 29 31 33 31
32 23 27 21 17 13 11 10 9 8 10 11 12 12 11 13 15 14 15 17 19 22 24 26 27 28 30 31 32 33 33 36 39 37 34 30 30 30 29 30 35 33 37
31 30 28 24 22 18 15 13 11 11 11 10 12 12 12 15 15 13 14 16 19 22 24 24 27 27 29 32 32 30 30 31 32 35 35 32 37 35 33 31 32 32 36
30 30 30 30 26 24 19 17 16 14 13 13 13 14 13 14 15 15 14 15 17 21 21 26 28 29 30 32 32 30 29 29 30 30 30 32 33 40 40 41 32 33 33
32 31 32 30 29 29 25 21 20 16 16 17 14 17 17 17 20 20 18 22 21 24 24 22 22 23 28 29 28 29 29 31 30 29 30 32 35 37 37 39 37 29 35
30 31 32 32 31 30 27 26 26 26 21 23 22 20 22 20 24 24 20 20 20 19 19 21 23 24 25 26 26 28 30 31 31 30 31 32 32 32 33 31 34 31 33
29 32 34 33 33 31 30 29 25 25 25 25 27 27 26 25 23 24 23 20 20 21 22 23 24 26 26 25 25 26 28 29 29 28 28 29 30 31 32 32 29 30 32
29 30 32 33 33 36 33 31 32 30 27 25 26 24 24 26 28 28 26 25 24 23 24 24 24 26 25 26 26 26 26 27 27 28 28 29 30 30 30 30 28 24 24
31 32 32 31 33 32 34 36 34 32 31 30 29 28 28 31 31 31 30 29 28 26 26 26 27 27 27 26 27 27 27 28 27 28 28 28 28 28 27 26 25 23 21
31 32 32 33 33 34 34 34 35 35 35 34 34 34 32 32 34 34 33 32 31 30 29 29 28 28 28 27 28 28 27 27 27 27 26 26 26 25 26 26 25 23 20
31 33 33 34 34 34 34 35 35 35 36 35 35 34 36 36 37 36 35 35 33 32 30 30 30 30 30 30 29 29 29 28 28 28 27 26 25 24 24 24 23 21 19
32 34 35 35 36 36 35 34 34 34 35 36 36 36 35 36 38 38 36 35 36 33 32 32 33 32 32 32 31 31 30 30 29 28 28 27 26 26 25 24 23 21 20
34 34 35 36 36 37 37 37 37 36 35 36 38 38 39 39 40 40 38 35 35 34 34 34 34 34 34 33 33 32 32 31 30 29 28 28 27 26 25 25 23 22 21
33 34 35 35 36 36 37 37 37 39 40 39 38 40 41 40 40 41 40 37 37 36 35 35 35 35 35 34 34 33 33 32 31 30 29 28 27 26 26 25 24 23 22
33 35 35 35 36 36 37 38 38 39 40 40 40 40 43 42 40 40 40 38 38 38 38 37 36 36 35 35 34 33 32 32 31 30 30 29 28 27 26 24 23 22 22
33 34 35 35 37 38 38 39 40 41 41 41 42 41 45 43 42 42 40 39 39 38 37 37 36 35 35 35 34 33 33 32 31 31 30 29 28 27 26 26 25 24 23
33 34 35 36 37 39 39 40 40 41 41 41 42 40 42 42 42 41 40 39 38 38 37 36 35 34 34 34 33 33 32 32 31 31 30 30 28 28 27 25 24 23 23
34 35 36 37 38 39 39 39 40 41 41 42 42 42 42 40 40 39 38 37 36 34 33 33 33 32 32 32 32 32 31 31 30 31 31 29 29 27 27 26 26 24 23
35 36 37 37 38 39 39 40 40 40 40 41 41 41 41 39 38 37 36 35 34 33 32 31 31 30 30 30 29 29 29 30 30 29 30 29 28 28 27 26 26 25 25
35 36 37 38 38 38 39 40 39 40 40 40 39 39 38 37 37 36 34 33 33 32 31 30 30 28 28 28 27 27 27 27 28 28 28 28 27 27 26 25 24 24 23
35 37 38 38 39 39 39 39 40 39 39 38 38 37 36 36 36 35 34 32 32 32 31 30 28 28 27 27 25 25 25 26 26 26 26 25 25 25 25 25 25 24 24
36 37 38 38 38 39 39 40 40 39 39 38 36 35 35 34 33 34 33 32 32 31 32 29 28 27 27 26 22 23 24 25 25 25 25 24 24 24 24 23 23 23 23
Wind_Direction
292 292 285 290 277 261 247 248 248 248 251 251 251 253 250 247 244 244 248 252 253 254 257 259 263 273 274 279 282 283 285 289 292 290 295 298 297 294 293 284 278 268 250
304 306 299 291 278 265 252 236 237 242 250 254 253 251 250 249 247 245 248 251 251 256 256 262 268 271 274 282 282 283 284 288 290 293 296 297 293 293 291 291 283 271 264
314 307 318 307 300 287 269 266 262 249 252 257 256 257 254 250 247 248 250 252 255 254 260 266 273 273 279 282 281 284 288 290 290 295 296 297 295 292 293 289 284 277 273
336 343 340 340 324 304 294 283 286 271 264 269 266 266 263 262 258 257 253 251 257 261 266 270 276 278 283 286 286 288 290 290 293 296 295 296 294 293 286 284 285 278 275
349 354 354 355 349 333 320 308 297 292 283 279 273 277 278 277 273 262 260 259 260 269 275 278 281 287 290 288 288 288 288 288 290 297 297 295 292 294 286 286 281 280 277
6 4 9 5 4 355 351 332 331 320 306 300 296 291 286 285 287 283 274 275 275 276 278 281 285 289 291 289 291 291 293 292 292 296 297 296 294 289 285 279 282 277 275
9 9 10 10 14 10 2 358 355 341 326 326 319 306 301 304 305 307 305 294 290 286 285 288 290 296 295 290 290 293 297 300 301 301 300 299 299 298 292 281 277 270 271
11 11 13 16 15 12 12 12 17 357 357 354 343 338 333 330 326 319 315 313 310 297 302 303 295 297 293 287 287 293 298 303 308 311 311 310 308 301 297 287 274 271 274
14 14 16 17 18 18 19 12 16 5 7 7 6 1 353 358 343 334 317 311 303 305 310 322 310 300 296 294 293 294 298 303 308 314 316 316 314 311 310 293 280 266 269
10 12 15 17 18 18 16 15 15 15 10 7 11 358 1 351 349 345 344 336 329 317 314 311 316 308 307 311 305 300 298 304 309 311 313 318 323 323 321 314 294 266 267
8 14 17 17 17 14 14 13 9 10 12 7 7 6 2 359 353 356 351 337 335 327 324 322 319 318 324 319 317 308 306 308 311 314 317 319 320 324 328 327 318 292 269
9 11 14 13 14 18 15 12 11 9 4 1 0 358 354 353 353 353 348 345 340 335 333 326 329 328 327 328 325 321 317 315 315 316 317 317 318 321 323 329 330 323 303
10 12 10 10 11 9 12 12 10 6 4 1 357 350 348 353 352 350 344 343 340 338 338 336 334 335 335 334 336 332 326 320 317 316 316 317 320 320 324 327 331 337 331
8 7 8 8 9 9 8 8 6 4 3 1 360 356 349 346 347 348 346 343 342 341 339 339 338 337 337 335 332 332 331 328 323 321 318 321 321 323 322 324 323 324 328
8 7 7 8 7 8 11 9 8 7 4 359 354 352 349 346 343 342 342 341 339 337 339 339 335 332 330 330 330 332 330 329 322 322 319 319 321 324 322 323 324 326 324
4 5 5 6 5 5 4 6 14 11 7 4 1 356 351 348 344 342 340 341 339 338 334 330 328 328 327 326 325 324 325 324 321 319 316 316 315 315 316 319 320 319 317
7 4 3 1 1 1 1 358 355 355 359 358 355 351 348 343 342 340 338 338 340 336 332 328 326 325 323 322 321 320 319 320 319 318 317 316 315 314 313 313 314 313 313
4 5 5 4 2 360 358 356 354 349 346 346 349 347 344 344 342 340 336 334 331 332 329 326 324 323 322 320 318 317 315 315 315 314 314 313 313 312 311 311 310 308 307
2 2 2 1 1 360 357 354 352 350 347 345 344 344 343 340 341 340 339 334 330 328 326 323 321 319 318 317 317 314 314 312 312 311 311 310 309 308 307 308 309 308 306
0 2 1 0 358 356 354 352 349 347 346 344 343 342 340 338 337 337 336 334 331 328 326 323 322 320 318 316 314 313 311 311 309 308 308 307 307 306 304 303 303 302 303
358 358 358 358 356 354 352 351 349 347 345 343 342 343 342 338 336 335 335 334 332 330 327 325 323 321 319 316 314 312 310 307 307 306 304 303 303 301 301 301 301 301 300
356 355 355 354 353 352 351 350 348 346 344 342 341 340 340 338 337 336 335 335 334 333 332 329 326 324 323 320 317 313 309 307 306 303 302 301 300 300 299 298 297 297 297
353 352 352 352 351 350 349 348 347 345 343 341 340 339 338 337 336 335 334 334 334 332 333 331 329 327 327 324 323 320 314 309 307 306 302 301 300 299 299 297 296 296 295
351 350 349 349 348 347 346 345 344 343 342 340 340 339 338 337 335 333 334 333 332 330 329 330 328 330 329 327 326 325 324 319 313 308 306 303 302 301 300 298 297 296 296
349 348 347 347 346 345 344 343 342 341 340 340 338 338 338 336 335 333 332 331 330 327 326 326 327 326 327 326 327 327 326 324 322 315 311 310 303 301 299 298 296 296 294
348 347 346 346 345 344 343 342 341 340 339 338 338 337 336 335 335 334 332 330 328 326 323 323 324 324 324 322 325 327 326 324 322 319 315 313 308 306 304 301 299 298 297